Location: Haulchin
(50.3172°N, 3.4360°E)
Time: 12:23:57
(UTC+00:00)

Cosmos 1709 Rocket - Pass Details

Date: 23 May 2024
Orbit: 948 x 1001 km, 82.9° (Epoch: 14 June)

Event Time Altitude Azimuth Distance (km) Brightness Sun altitude
Exits shadow 01:49:42 16° 187° (S) 2,341 5.4 -13.7°
Maximum altitude 01:54:56 88° 97° (E) 1,003 4.1 -13.3°
Drops below altitude 10° 02:01:21 10° 10° (N) 2,782 7.5 -12.7°
Sets 02:03:54 0° 10° (N) 3,737 8.4 -12.5°
